GEC302 EFHK-ESSA

Flight info

Callsign GEC302
Flight time 0h 49m
Altitude 30000
Route ADIVO5C/04R ADIVO Y365 POGOK DCT RUNGA N872 XILAN
Aircraft B77L/H-SDE1E2E3FGHIJ2J3J4J5M1RWXY/LB1D1

Departure

Time 2026-04-22 17:54
Airport Helsinki Vantaa Airport (EFHK)

Arrival

Time 2026-04-22 18:43
Airport Stockholm-Arlanda Airport (ESSA)
Time Latitude Longitude Altitude Speed Heading
2026-04-22 17:19 60.31139 24.97598 168 ft 0 kts 243°
2026-04-22 17:33 60.31140 24.97600 168 ft 2 kts 243°
2026-04-22 17:33 60.31155 24.97661 168 ft 4 kts 239°
2026-04-22 17:33 60.31172 24.97700 167 ft 4 kts 205°
2026-04-22 17:33 60.31196 24.97707 167 ft 4 kts 161°
2026-04-22 17:34 60.31204 24.97701 167 ft 1 kts 153°
2026-04-22 17:37 60.31194 24.97712 167 ft 7 kts 153°
2026-04-22 17:37 60.31160 24.97841 165 ft 12 kts 77°
2026-04-22 17:37 60.31212 24.97966 163 ft 13 kts
2026-04-22 17:37 60.31300 24.97887 162 ft 17 kts 329°
2026-04-22 17:38 60.31428 24.97753 160 ft 25 kts 333°
2026-04-22 17:38 60.31578 24.97599 160 ft 24 kts 333°
2026-04-22 17:38 60.31725 24.97449 164 ft 24 kts 333°
2026-04-22 17:38 60.31871 24.97298 166 ft 24 kts 333°
2026-04-22 17:39 60.32015 24.97148 170 ft 23 kts 333°
2026-04-22 17:39 60.32156 24.97004 170 ft 21 kts 333°
2026-04-22 17:39 60.32251 24.96906 169 ft 0 kts 333°
2026-04-22 17:42 60.32257 24.96900 169 ft 8 kts 333°
2026-04-22 17:42 60.32299 24.96789 170 ft 9 kts 257°
2026-04-22 17:42 60.32271 24.96711 171 ft 15 kts 229°
2026-04-22 17:42 60.32113 24.96362 172 ft 31 kts 228°
2026-04-22 17:43 60.31987 24.96088 173 ft 23 kts 228°
2026-04-22 17:43 60.31913 24.95922 174 ft 23 kts 227°
2026-04-22 17:43 60.31804 24.95683 174 ft 23 kts 228°
2026-04-22 17:43 60.31693 24.95437 175 ft 23 kts 227°
2026-04-22 17:44 60.31584 24.95198 174 ft 23 kts 227°
2026-04-22 17:44 60.31474 24.94955 172 ft 23 kts 227°
2026-04-22 17:44 60.31363 24.94713 167 ft 23 kts 227°
2026-04-22 17:44 60.31253 24.94470 163 ft 23 kts 227°
2026-04-22 17:45 60.31144 24.94229 162 ft 22 kts 227°
2026-04-22 17:45 60.31062 24.94049 162 ft 14 kts 227°
2026-04-22 17:45 60.31026 24.93925 163 ft 8 kts 270°
2026-04-22 17:45 60.31036 24.93872 163 ft 3 kts 296°
2026-04-22 17:46 60.31037 24.93868 163 ft 0 kts 297°
2026-04-22 17:47 60.31037 24.93867 163 ft 1 kts 297°
2026-04-22 17:47 60.31072 24.93773 163 ft 13 kts 316°
2026-04-22 17:47 60.31140 24.93684 162 ft 8 kts 352°
2026-04-22 17:48 60.31159 24.93706 162 ft 0 kts 45°
2026-04-22 17:52 60.31162 24.93712 162 ft 5 kts 45°
2026-04-22 17:53 60.31297 24.94008 165 ft 63 kts 47°
2026-04-22 17:53 60.31741 24.94981 177 ft 122 kts 48°
2026-04-22 17:53 60.32441 24.96520 183 ft 174 kts 48°
2026-04-22 17:53 60.33250 24.98432 599 ft 177 kts 44°
2026-04-22 17:54 60.34060 25.00295 1242 ft 176 kts 40°
2026-04-22 17:54 60.34952 25.02183 1629 ft 198 kts 38°
2026-04-22 17:54 60.35964 25.04332 1909 ft 224 kts 39°
2026-04-22 17:54 60.37048 25.06699 2555 ft 234 kts 40°
2026-04-22 17:55 60.38153 25.09138 3382 ft 237 kts 40°
2026-04-22 17:55 60.39306 25.11512 3925 ft 234 kts 30°
2026-04-22 17:55 60.40780 25.12745 3991 ft 230 kts
2026-04-22 17:55 60.42360 25.12890 4009 ft 227 kts 360°
2026-04-22 17:56 60.43928 25.12947 3987 ft 223 kts
2026-04-22 17:56 60.45470 25.13008 4003 ft 221 kts
2026-04-22 17:56 60.47010 25.13059 3997 ft 220 kts 358°
2026-04-22 17:56 60.48468 25.12323 4000 ft 221 kts 333°
2026-04-22 17:57 60.49668 25.10274 4125 ft 233 kts 314°
2026-04-22 17:57 60.50509 25.07408 4909 ft 243 kts 298°
2026-04-22 17:57 60.50740 25.03905 5659 ft 259 kts 277°
2026-04-22 17:57 60.50693 25.00204 6400 ft 264 kts 279°
2026-04-22 17:58 60.50687 24.96460 7214 ft 266 kts 280°
2026-04-22 17:58 60.50691 24.92710 8058 ft 266 kts 281°
2026-04-22 17:58 60.50701 24.88948 8889 ft 267 kts 281°
2026-04-22 17:58 60.50386 24.85122 9467 ft 291 kts 259°
2026-04-22 17:59 60.49510 24.81311 9960 ft 304 kts 255°
2026-04-22 17:59 60.48568 24.77290 10220 ft 328 kts 255°
2026-04-22 17:59 60.47557 24.72949 10437 ft 353 kts 254°
2026-04-22 17:59 60.46470 24.68297 10746 ft 375 kts 253°
2026-04-22 18:00 60.45716 24.65097 11197 ft 383 kts 253°
2026-04-22 18:00 60.44152 24.58485 12274 ft 394 kts 253°
2026-04-22 18:00 60.42960 24.53451 13200 ft 399 kts 253°
2026-04-22 18:00 60.41754 24.48349 14059 ft 404 kts 254°
2026-04-22 18:01 60.40536 24.43185 14850 ft 409 kts 255°
2026-04-22 18:01 60.39302 24.37956 15658 ft 415 kts 255°
2026-04-22 18:01 60.38053 24.32668 16458 ft 420 kts 255°
2026-04-22 18:01 60.36785 24.27314 17249 ft 424 kts 256°
2026-04-22 18:02 60.35502 24.21909 18017 ft 430 kts 256°
2026-04-22 18:02 60.34198 24.16434 18638 ft 435 kts 255°
2026-04-22 18:02 60.32880 24.10916 19328 ft 438 kts 255°
2026-04-22 18:02 60.31549 24.05350 19997 ft 442 kts 254°
2026-04-22 18:03 60.30206 23.99736 20658 ft 446 kts 255°
2026-04-22 18:03 60.29106 23.93968 21280 ft 437 kts 265°
2026-04-22 18:03 60.28440 23.88017 21902 ft 435 kts 269°
2026-04-22 18:03 60.27869 23.82011 22545 ft 439 kts 270°
2026-04-22 18:04 60.27293 23.75940 23208 ft 443 kts 269°
2026-04-22 18:04 60.26685 23.69825 23782 ft 448 kts 268°
2026-04-22 18:04 60.26042 23.63660 24320 ft 452 kts 268°
2026-04-22 18:04 60.25367 23.57434 24851 ft 457 kts 268°
2026-04-22 18:05 60.24672 23.51167 25373 ft 461 kts 267°
2026-04-22 18:05 60.23961 23.44847 25879 ft 465 kts 267°
2026-04-22 18:05 60.23240 23.38472 26378 ft 469 kts 267°
2026-04-22 18:05 60.22509 23.32047 26834 ft 474 kts 267°
2026-04-22 18:06 60.21769 23.25565 27385 ft 476 kts 267°
2026-04-22 18:06 60.21024 23.19081 28085 ft 475 kts 267°
2026-04-22 18:06 60.20279 23.12626 28824 ft 473 kts 267°
2026-04-22 18:06 60.19535 23.06190 29462 ft 473 kts 267°
2026-04-22 18:07 60.18788 22.99730 29905 ft 477 kts 267°
2026-04-22 18:07 60.17269 22.86707 29865 ft 476 kts 267°
2026-04-22 18:08 60.15748 22.73843 29857 ft 472 kts 267°
2026-04-22 18:08 60.14227 22.61015 29862 ft 473 kts 266°
2026-04-22 18:09 60.12698 22.48182 29826 ft 473 kts 266°
2026-04-22 18:09 60.11162 22.35362 29879 ft 474 kts 266°
2026-04-22 18:10 60.09604 22.22502 29886 ft 476 kts 266°
2026-04-22 18:10 60.08027 22.09615 29891 ft 477 kts 266°
2026-04-22 18:11 60.06433 21.96713 29893 ft 477 kts 265°
2026-04-22 18:11 60.04825 21.83817 29898 ft 477 kts 265°
2026-04-22 18:12 60.03207 21.70943 29849 ft 477 kts 265°
2026-04-22 18:12 60.01852 21.60261 29912 ft 476 kts 265°
2026-04-22 18:13 59.99966 21.45566 29896 ft 451 kts 265°
2026-04-22 18:13 59.99196 21.39604 29847 ft 438 kts 265°
2026-04-22 18:13 59.98425 21.33741 29409 ft 435 kts 265°
2026-04-22 18:13 59.97627 21.27897 29023 ft 440 kts 264°
2026-04-22 18:14 59.96807 21.21941 28588 ft 451 kts 264°
2026-04-22 18:14 59.95960 21.15844 28146 ft 461 kts 263°
2026-04-22 18:14 59.95097 21.09734 27652 ft 453 kts 263°
2026-04-22 18:14 59.94244 21.03772 27241 ft 441 kts 263°
2026-04-22 18:15 59.93409 20.97921 26839 ft 439 kts 264°
2026-04-22 18:15 59.92585 20.92134 26391 ft 429 kts 264°
2026-04-22 18:15 59.91770 20.86381 25977 ft 435 kts 264°
2026-04-22 18:15 59.90946 20.80510 25579 ft 446 kts 263°
2026-04-22 18:16 59.90104 20.74582 25144 ft 440 kts 263°
2026-04-22 18:16 59.89267 20.68799 24718 ft 429 kts 263°
2026-04-22 18:16 59.88446 20.63149 24308 ft 420 kts 263°
2026-04-22 18:16 59.87643 20.57626 23913 ft 411 kts 264°
2026-04-22 18:17 59.86841 20.52086 23535 ft 411 kts 264°
2026-04-22 18:17 59.86065 20.46717 23077 ft 408 kts 264°
2026-04-22 18:17 59.85270 20.41246 22656 ft 405 kts 264°
2026-04-22 18:17 59.84488 20.35900 22249 ft 401 kts 264°
2026-04-22 18:18 59.83711 20.30610 21848 ft 397 kts 264°
2026-04-22 18:18 59.82939 20.25365 21460 ft 393 kts 264°
2026-04-22 18:18 59.82183 20.20247 21074 ft 389 kts 263°
2026-04-22 18:18 59.81422 20.15113 20696 ft 386 kts 263°
2026-04-22 18:19 59.80666 20.10024 20321 ft 382 kts 263°
2026-04-22 18:19 59.79913 20.04976 19888 ft 379 kts 263°
2026-04-22 18:19 59.79168 19.99985 19546 ft 375 kts 263°
2026-04-22 18:19 59.78426 19.95043 19181 ft 372 kts 263°
2026-04-22 18:20 59.77688 19.90138 18813 ft 369 kts 263°
2026-04-22 18:20 59.76956 19.85277 18442 ft 367 kts 263°
2026-04-22 18:20 59.76226 19.80445 18037 ft 364 kts 263°
2026-04-22 18:20 59.75499 19.75655 17619 ft 361 kts 263°
2026-04-22 18:21 59.74781 19.70895 17210 ft 358 kts 263°
2026-04-22 18:21 59.74114 19.66177 16842 ft 353 kts 264°
2026-04-22 18:21 59.73464 19.61440 16450 ft 350 kts 264°
2026-04-22 18:21 59.72832 19.56814 16087 ft 346 kts 264°
2026-04-22 18:22 59.72415 19.53778 15853 ft 344 kts 264°
2026-04-22 18:22 59.71786 19.49226 15492 ft 341 kts 264°
2026-04-22 18:22 59.71160 19.44727 15134 ft 338 kts 264°
2026-04-22 18:22 59.70535 19.40254 14785 ft 337 kts 264°
2026-04-22 18:23 59.69909 19.35787 14437 ft 337 kts 264°
2026-04-22 18:23 59.69279 19.31303 14082 ft 339 kts 264°
2026-04-22 18:23 59.68642 19.26797 13706 ft 341 kts 264°
2026-04-22 18:24 59.67357 19.17759 13003 ft 339 kts 263°
2026-04-22 18:24 59.66719 19.13288 12739 ft 336 kts 263°
2026-04-22 18:24 59.65456 19.04457 12210 ft 330 kts 263°
2026-04-22 18:25 59.64840 19.00125 11980 ft 326 kts 263°
2026-04-22 18:25 59.64229 18.95818 11633 ft 326 kts 263°
2026-04-22 18:25 59.63616 18.91521 11280 ft 321 kts 263°
2026-04-22 18:26 59.62419 18.83183 9973 ft 314 kts 263°
2026-04-22 18:26 59.61824 18.79019 9516 ft 313 kts 262°
2026-04-22 18:26 59.61232 18.74923 9191 ft 308 kts 262°
2026-04-22 18:26 59.60648 18.70891 8811 ft 303 kts 262°
2026-04-22 18:27 59.60070 18.66904 8433 ft 300 kts 262°
2026-04-22 18:27 59.59498 18.63004 8163 ft 288 kts 262°
2026-04-22 18:27 59.58951 18.59312 7881 ft 277 kts 262°
2026-04-22 18:27 59.58421 18.55690 7622 ft 273 kts 262°
2026-04-22 18:28 59.57898 18.52113 7340 ft 270 kts 261°
2026-04-22 18:28 59.57143 18.48739 7046 ft 276 kts 239°
2026-04-22 18:28 59.55660 18.46262 6813 ft 288 kts 211°
2026-04-22 18:28 59.53717 18.45208 6575 ft 293 kts 191°
2026-04-22 18:29 59.51690 18.44859 6367 ft 292 kts 188°
2026-04-22 18:29 59.49662 18.44547 6114 ft 292 kts 190°
2026-04-22 18:29 59.47654 18.44080 6057 ft 291 kts 191°
2026-04-22 18:29 59.45643 18.43561 6008 ft 290 kts 192°
2026-04-22 18:30 59.43660 18.43038 6003 ft 287 kts 192°
2026-04-22 18:30 59.39743 18.41685 5998 ft 282 kts 205°
2026-04-22 18:30 59.37888 18.40371 6005 ft 285 kts 207°
2026-04-22 18:31 59.36032 18.38973 6002 ft 287 kts 207°
2026-04-22 18:31 59.34174 18.37553 5964 ft 286 kts 207°
2026-04-22 18:31 59.32316 18.36119 5708 ft 288 kts 207°
2026-04-22 18:31 59.30469 18.34680 5448 ft 283 kts 207°
2026-04-22 18:32 59.28680 18.33200 5156 ft 272 kts 216°
2026-04-22 18:32 59.27346 18.30854 4849 ft 250 kts 248°
2026-04-22 18:32 59.26839 18.27782 4565 ft 230 kts 275°
2026-04-22 18:32 59.26812 18.24674 4338 ft 231 kts 277°
2026-04-22 18:33 59.26804 18.21490 4101 ft 234 kts 278°
2026-04-22 18:33 59.27048 18.18468 4010 ft 219 kts 300°
2026-04-22 18:33 59.27863 18.16077 4005 ft 210 kts 312°
2026-04-22 18:33 59.28682 18.13718 3994 ft 209 kts 308°
2026-04-22 18:34 59.29452 18.11316 3988 ft 208 kts 307°
2026-04-22 18:34 59.30210 18.08911 3999 ft 208 kts 307°
2026-04-22 18:34 59.30969 18.06497 3994 ft 209 kts 307°
2026-04-22 18:34 59.31721 18.04114 4005 ft 210 kts 307°
2026-04-22 18:35 59.32518 18.01605 4017 ft 218 kts 307°
2026-04-22 18:35 59.33324 17.99079 4008 ft 219 kts 307°
2026-04-22 18:35 59.34130 17.96555 4004 ft 218 kts 307°
2026-04-22 18:35 59.34919 17.94079 3987 ft 208 kts 307°
2026-04-22 18:36 59.35700 17.91843 3978 ft 190 kts 315°
2026-04-22 18:36 59.36567 17.89902 3966 ft 190 kts 317°
2026-04-22 18:36 59.37448 17.87999 3817 ft 186 kts 317°
2026-04-22 18:36 59.38311 17.86156 3648 ft 181 kts 321°
2026-04-22 18:37 59.39288 17.84582 3547 ft 181 kts 330°
2026-04-22 18:37 59.40448 17.83896 3360 ft 175 kts
2026-04-22 18:37 59.41645 17.84070 3280 ft 173 kts
2026-04-22 18:37 59.42854 17.84177 3266 ft 175 kts
2026-04-22 18:38 59.44082 17.84397 3137 ft 178 kts
2026-04-22 18:38 59.45300 17.84751 3071 ft 176 kts
2026-04-22 18:38 59.46505 17.85155 3007 ft 175 kts
2026-04-22 18:39 59.48812 17.85971 2988 ft 157 kts
2026-04-22 18:39 59.49880 17.86353 2965 ft 158 kts
2026-04-22 18:39 59.50964 17.86742 2764 ft 156 kts
2026-04-22 18:39 59.52026 17.87121 2523 ft 153 kts
2026-04-22 18:40 59.53067 17.87494 2317 ft 152 kts
2026-04-22 18:40 59.54102 17.87864 2114 ft 151 kts
2026-04-22 18:40 59.55130 17.88233 1908 ft 149 kts
2026-04-22 18:40 59.56124 17.88592 1697 ft 140 kts
2026-04-22 18:41 59.57079 17.88934 1509 ft 142 kts
2026-04-22 18:41 59.58052 17.89285 1306 ft 139 kts
2026-04-22 18:41 59.58988 17.89621 1161 ft 135 kts
2026-04-22 18:41 59.59909 17.89951 930 ft 133 kts
2026-04-22 18:42 59.60828 17.90271 729 ft 133 kts
2026-04-22 18:42 59.61759 17.90625 518 ft 139 kts
2026-04-22 18:42 59.62732 17.90961 353 ft 146 kts
2026-04-22 18:42 59.63753 17.91341 145 ft 151 kts
2026-04-22 18:43 59.64700 17.91674 109 ft 118 kts 11°
2026-04-22 18:43 59.65311 17.91897 110 ft 67 kts 10°
2026-04-22 18:43 59.65668 17.92068 109 ft 38 kts 28°
2026-04-22 18:43 59.65792 17.92344 109 ft 19 kts 104°
2026-04-22 18:44 59.65721 17.92406 109 ft 11 kts 186°
2026-04-22 18:44 59.65622 17.92369 109 ft 19 kts 192°
2026-04-22 18:44 59.65452 17.92302 109 ft 29 kts 188°
2026-04-22 18:44 59.65324 17.92298 109 ft 12 kts 148°
2026-04-22 18:45 59.65261 17.92405 112 ft 12 kts 170°
2026-04-22 18:45 59.65169 17.92372 114 ft 16 kts 192°
2026-04-22 18:45 59.65044 17.92323 113 ft 20 kts 191°
2026-04-22 18:45 59.64901 17.92277 114 ft 22 kts 189°
2026-04-22 18:46 59.64766 17.92227 113 ft 18 kts 191°
2026-04-22 18:46 59.64640 17.92181 116 ft 18 kts 190°
2026-04-22 18:46 59.64515 17.92135 115 ft 18 kts 190°
2026-04-22 18:46 59.64407 17.92120 114 ft 14 kts 160°
2026-04-22 18:47 59.64352 17.92261 116 ft 13 kts 117°
2026-04-22 18:47 59.64310 17.92427 116 ft 14 kts 117°
2026-04-22 18:47 59.64263 17.92601 115 ft 15 kts 118°
2026-04-22 18:47 59.64213 17.92791 113 ft 16 kts 117°
2026-04-22 18:48 59.64129 17.92855 115 ft 15 kts 204°
2026-04-22 18:48 59.64040 17.92764 114 ft 11 kts 207°
2026-04-22 18:48 59.63988 17.92711 114 ft 6 kts 208°
2026-04-22 18:48 59.63977 17.92699 114 ft 0 kts 207°
2026-04-22 18:50 59.63976 17.92698 114 ft 0 kts 207°